sat.trackr.live / text

‹ back to catalog

STARLINK-3363

NORAD 51135 · 2022-005AH

PAYLOAD ACTIVE UNKNOWN

§ Identity

Operator
Country
US
Launch date
2022-01-19
Launch site
AFETR
Launch vehicle
Mass (kg)
RCS (m²)

Purposes: comms

External: N2YO · Heavens-Above · Gunter

§ Orbital elements

Epoch: 2026-09-20T04:42:07.341120Z

Period
93.79 min
Inclination
53.1579°
Eccentricity
0.0001042
Mean motion
15.35402687 rev/d
Perigee alt
459.0 km
Apogee alt
460.4 km
Semi-major
6,837.9 km
B*
2.0214e-5
RAAN
131.1253°
Arg perigee
94.0047°
Mean anomaly
266.1075°
Rev number
25,829

§ Raw data

STARLINK-33631 51135U 22005AH  26263.19591830  .00000325  00000+0  20214-4 0  99912 51135  53.1579 131.1253 0001042  94.0047 266.1075 15.35402687258298

JSON: /api/v1/satellites/51135 · /tle

For live sub-satellite position, see the globe view (requires WebGL).

§ Visibility from observer

Set your observer location to see the next 7 days of passes ≥ 10°. The values pass through the URL so the page stays shareable.

No JS? Fill the form by hand. The geolocation button needs JavaScript.